Content
SEND FEEDBACK

United States of America Flag

ST. LOUIS, MISSOURI


Home > North America > United States > Missouri
Elevation: 535 feet     Latitude: 38 45N     Longitude: 090 22W

WEATHER
 
SELECT A DAY
Number of Records: 214,092;   Date Range: 1/1/95 - 3/22/16
 
SHARE

PRINT THIS DATA

[ ← Previous Day ]
WEATHER ALMANAC - OCTOBER 4, 2013
[ Next Day → ]
[ °C ]   °F
We're sorry. There is no daily almanac available for St. Louis, Missouri on October 4, 2013.
WEATHER BY HOUR - OCTOBER 4, 2013
[ °C ]   °F
Local TimeTemperatureDewpointHumidityBarometerVisibilityWind DirectionWind SpeedGust SpeedPrecipitationEventsConditions
1:54 AM73.0 °F68.0 °F84 %29.92 in10.0 miSouth (180°)5.8 mphClear
2:54 AM71.1 °F66.9 °F87 %29.92 in10.0 miCalmClear
3:54 AM69.1 °F66.9 °F93 %29.92 in9.0 miSSE (160°)3.5 mphClear
4:54 AM69.1 °F66.9 °F93 %29.92 in10.0 miCalmClear
5:54 AM69.1 °F66.0 °F90 %29.93 in10.0 miCalmClear
6:54 AM70.0 °F66.9 °F90 %29.95 in10.0 miSouth (190°)3.5 mphClear
7:54 AM71.1 °F66.9 °F87 %29.96 in10.0 miVariable4.6 mphClear
8:54 AM73.9 °F68.0 °F82 %29.95 in10.0 miSSW (200°)8.1 mphPartly Cloudy
9:54 AM78.1 °F68.0 °F71 %29.95 in10.0 miSSW (210°)11.5 mph18.4 mphClear
10:54 AM82.0 °F68.0 °F62 %29.94 in10.0 miSSW (200°)9.2 mphClear
11:54 AM84.9 °F68.0 °F57 %29.92 in10.0 miSouth (190°)9.2 mph16.1 mphScattered Clouds
12:54 PM87.1 °F66.0 °F49 %29.91 in10.0 miSouth (190°)9.2 mph20.7 mphMostly Cloudy
1:54 PM86.0 °F66.0 °F51 %29.88 in10.0 miSouth (180°)9.2 mph18.4 mphMostly Cloudy
2:54 PM84.9 °F66.0 °F53 %29.88 in10.0 miSouth (190°)8.1 mph16.1 mphMostly Cloudy
3:54 PM84.9 °F66.0 °F53 %29.86 in10.0 miSouth (180°)12.7 mphMostly Cloudy
4:54 PM84.9 °F66.0 °F53 %29.87 in10.0 miSouth (190°)10.4 mph16.1 mphScattered Clouds
5:54 PM82.9 °F66.0 °F56 %29.88 in10.0 miSouth (190°)6.9 mphMostly Cloudy
6:54 PM81.0 °F66.9 °F62 %29.89 in10.0 miSouth (170°)4.6 mphScattered Clouds
7:54 PM79.0 °F68.0 °F69 %29.90 in10.0 miVariable3.5 mphClear
8:54 PM78.1 °F68.0 °F71 %29.91 in10.0 miSouth (170°)5.8 mphClear
9:54 PM77.0 °F69.1 °F76 %29.92 in10.0 miSouth (180°)4.6 mphClear
10:54 PM75.9 °F69.1 °F79 %29.91 in10.0 miSouth (180°)5.8 mphClear
11:54 PM75.0 °F69.1 °F82 %29.92 in10.0 miSSW (200°)6.9 mphClear
Hourly data recorded from KSUS, located miles away from St. Louis, Missouri




STORIES FROM OUR PARTNERS